| time (UTC) | temp F | wind direction | speed MPH | gust MPH | rain 1hr in | rain 24hr in | rain mn in | humidity % | barometer mb |
| 20260505005507 | 69 | 234 | 7.0 | 9.0 | 0.00 | 0.00 | 0.00 | 44 | 1000.1 |
| 20260505004507 | 69 | 231 | 9.0 | 12.0 | 0.00 | 0.00 | 0.00 | 44 | 1000.1 |
| 20260505003507 | 69 | 228 | 9.0 | 14.0 | 0.00 | 0.00 | 0.00 | 43 | 1000.1 |
| 20260505003008 | 70 | 237 | 9.0 | 12.0 | 0.00 | 0.00 | 0.00 | 43 | 1000.1 |
| 20260505002507 | 70 | 226 | 9.0 | 12.0 | 0.00 | 0.00 | 0.00 | 42 | 1000.1 |
| 20260505002008 | 70 | 235 | 9.0 | 12.0 | 0.00 | 0.00 | 0.00 | 42 | 1000.1 |
| 20260505001506 | 70 | 231 | 9.0 | 9.0 | 0.00 | 0.00 | 0.00 | 42 | 1000.1 |
| 20260505001008 | 71 | 225 | 7.0 | 9.0 | 0.00 | 0.00 | 0.00 | 42 | 1000.1 |
| 20260505000507 | 71 | 227 | 7.0 | 9.0 | 0.00 | 0.00 | 0.00 | 42 | 1000.1 |
| 20260505000006 | 70 | 231 | 7.0 | 9.0 | 0.00 | 0.00 | 0.00 | 42 | 1000.1 |
| 20260504235507 | 71 | 243 | 7.0 | 9.0 | 0.00 | 0.00 | 0.00 | 42 | 1000.1 |
| 20260504235007 | 71 | 248 | 7.0 | 9.0 | 0.00 | 0.00 | 0.00 | 42 | 1000.1 |
| 20260504234507 | 71 | 236 | 7.0 | 9.0 | 0.00 | 0.00 | 0.00 | 42 | 1000.1 |
| 20260504234008 | 71 | 243 | 7.0 | 9.0 | 0.00 | 0.00 | 0.00 | 42 | 1000.1 |
| 20260504233507 | 71 | 249 | 9.0 | 14.0 | 0.00 | 0.00 | 0.00 | 42 | 1000.1 |
| 20260504233007 | 71 | 254 | 9.0 | 14.0 | 0.00 | 0.00 | 0.00 | 42 | 1000.1 |
| 20260504232506 | 72 | 259 | 12.0 | 14.0 | 0.00 | 0.00 | 0.00 | 41 | 999.7 |
| 20260504232007 | 72 | 261 | 12.0 | 16.0 | 0.00 | 0.00 | 0.00 | 41 | 1000.1 |
| 20260504231506 | 72 | 261 | 13.0 | 18.0 | 0.00 | 0.00 | 0.00 | 41 | 999.7 |
| 20260504231007 | 73 | 266 | 14.0 | 18.0 | 0.00 | 0.00 | 0.00 | 41 | 999.1 |
| 20260504230507 | 73 | 252 | 13.0 | 16.0 | 0.00 | 0.00 | 0.00 | 41 | 999.1 |
| 20260504225508 | 73 | 255 | 13.0 | 16.0 | 0.00 | 0.00 | 0.00 | 41 | 999.1 |
| 20260504225007 | 73 | 254 | 12.0 | 16.0 | 0.00 | 0.00 | 0.00 | 41 | 999.1 |
| 20260504224506 | 73 | 260 | 12.0 | 16.0 | 0.00 | 0.00 | 0.00 | 40 | 999.1 |
| 20260504224008 | 73 | 256 | 13.0 | 18.0 | 0.00 | 0.00 | 0.00 | 40 | 999.1 |
| 20260504223507 | 73 | 240 | 14.0 | 20.0 | 0.00 | 0.00 | 0.00 | 40 | 999.1 |
| 20260504223007 | 73 | 257 | 14.0 | 20.0 | 0.00 | 0.00 | 0.00 | 40 | 999.1 |
| 20260504222506 | 73 | 248 | 15.0 | 18.0 | 0.00 | 0.00 | 0.00 | 41 | 999.1 |
| 20260504222007 | 73 | 263 | 16.0 | 18.0 | 0.00 | 0.00 | 0.00 | 40 | 999.1 |
| 20260504221007 | 73 | 255 | 14.0 | 22.0 | 0.00 | 0.00 | 0.00 | 41 | 999.1 |
| 20260504220507 | 73 | 257 | 17.0 | 22.0 | 0.00 | 0.00 | 0.00 | 40 | 999.1 |
| 20260504220006 | 74 | 258 | 16.0 | 20.0 | 0.00 | 0.00 | 0.00 | 40 | 999.1 |
| 20260504215507 | 74 | 254 | 17.0 | 20.0 | 0.00 | 0.00 | 0.00 | 40 | 999.1 |
| 20260504215007 | 74 | 253 | 16.0 | 20.0 | 0.00 | 0.00 | 0.00 | 41 | 998.6 |
| 20260504214007 | 73 | 243 | 18.0 | 31.0 | 0.00 | 0.00 | 0.00 | 41 | 999.1 |
| 20260504213008 | 74 | 242 | 17.0 | 24.0 | 0.00 | 0.00 | 0.00 | 41 | 999.1 |
| 20260504212506 | 74 | 261 | 18.0 | 24.0 | 0.00 | 0.00 | 0.00 | 41 | 999.1 |
| 20260504212007 | 74 | 239 | 18.0 | 26.0 | 0.00 | 0.00 | 0.00 | 41 | 999.1 |
| 20260504211506 | 74 | 256 | 21.0 | 26.0 | 0.00 | 0.00 | 0.00 | 41 | 999.1 |
| 20260504211007 | 74 | 265 | 18.0 | 26.0 | 0.00 | 0.00 | 0.00 | 42 | 999.1 |
| 20260504210506 | 74 | 241 | 20.0 | 26.0 | 0.00 | 0.00 | 0.00 | 41 | 999.1 |
| 20260504210006 | 74 | 242 | 19.0 | 24.0 | 0.00 | 0.00 | 0.00 | 42 | 999.1 |
| 20260504205007 | 74 | 243 | 22.0 | 26.0 | 0.00 | 0.00 | 0.00 | 42 | 999.1 |
| 20260504204007 | 73 | 249 | 22.0 | 31.0 | 0.00 | 0.00 | 0.00 | 42 | 999.3 |
| 20260504203507 | 73 | 240 | 22.0 | 31.0 | 0.00 | 0.00 | 0.00 | 43 | 1000.1 |
| 20260504202506 | 73 | 235 | 22.0 | 31.0 | 0.00 | 0.00 | 0.00 | 43 | 999.1 |
| 20260504202007 | 73 | 243 | 22.0 | 26.0 | 0.00 | 0.00 | 0.00 | 43 | 1000.1 |
| 20260504201506 | 73 | 241 | 22.0 | 31.0 | 0.00 | 0.00 | 0.00 | 44 | 1000.1 |
| 20260504201007 | 73 | 253 | 22.0 | 31.0 | 0.00 | 0.00 | 0.00 | 44 | 999.9 |
| 20260504200506 | 73 | 248 | 18.0 | 31.0 | 0.00 | 0.00 | 0.00 | 44 | 1000.1 |
| 20260504200006 | 73 | 253 | 16.0 | 24.0 | 0.00 | 0.00 | 0.00 | 44 | 1000.1 |
| 20260504195505 | 73 | 248 | 19.0 | 29.0 | 0.00 | 0.00 | 0.00 | 44 | 1000.1 |
| 20260504195007 | 73 | 232 | 19.0 | 29.0 | 0.00 | 0.00 | 0.00 | 44 | 1000.1 |
| 20260504194506 | 72 | 230 | 16.0 | 22.0 | 0.00 | 0.00 | 0.00 | 45 | 1000.1 |
| 20260504194007 | 72 | 245 | 14.0 | 22.0 | 0.00 | 0.00 | 0.00 | 45 | 1000.1 |
| 20260504193506 | 72 | 252 | 16.0 | 22.0 | 0.00 | 0.00 | 0.00 | 45 | 1000.1 |
| 20260504193007 | 72 | 236 | 18.0 | 26.0 | 0.00 | 0.00 | 0.00 | 45 | 1000.6 |
| 20260504192506 | 71 | 235 | 21.0 | 26.0 | 0.00 | 0.00 | 0.00 | 45 | 1000.9 |
| 20260504192007 | 71 | 239 | 22.0 | 26.0 | 0.00 | 0.00 | 0.00 | 45 | 1000.8 |
| 20260504191505 | 71 | 236 | 20.0 | 26.0 | 0.00 | 0.00 | 0.00 | 46 | 1000.6 |
| 20260504191007 | 71 | 236 | 22.0 | 26.0 | 0.00 | 0.00 | 0.00 | 46 | 1001.1 |
| 20260504190507 | 71 | 252 | 20.0 | 26.0 | 0.00 | 0.00 | 0.00 | 47 | 1000.3 |
| 20260504190006 | 71 | 244 | 22.0 | 31.0 | 0.00 | 0.00 | 0.00 | 47 | 1001.1 |
| 20260504184007 | 70 | 254 | 20.0 | 24.0 | 0.00 | 0.00 | 0.00 | 49 | 1001.1 |
| 20260504183506 | 70 | 252 | 20.0 | 26.0 | 0.00 | 0.00 | 0.00 | 49 | 1001.1 |
| 20260504183007 | 70 | 237 | 22.0 | 26.0 | 0.00 | 0.00 | 0.00 | 49 | 1001.1 |
| 20260504182505 | 69 | 234 | 22.0 | 26.0 | 0.00 | 0.00 | 0.00 | 49 | 1001.1 |
| 20260504182007 | 69 | 262 | 20.0 | 26.0 | 0.00 | 0.00 | 0.00 | 49 | 1001.1 |
| 20260504181506 | 70 | 242 | 20.0 | 29.0 | 0.00 | 0.00 | 0.00 | 50 | 1001.1 |
| 20260504181007 | 69 | 240 | 22.0 | 29.0 | 0.00 | 0.00 | 0.00 | 49 | 1001.1 |
| 20260504180506 | 69 | 258 | 18.0 | 26.0 | 0.00 | 0.00 | 0.00 | 50 | 1001.1 |
| 20260504180006 | 69 | 242 | 22.0 | 29.0 | 0.00 | 0.00 | 0.00 | 50 | 1001.5 |
| 20260504175506 | 69 | 231 | 22.0 | 29.0 | 0.00 | 0.00 | 0.00 | 50 | 1001.1 |
| 20260504175007 | 69 | 242 | 22.0 | 26.0 | 0.00 | 0.00 | 0.00 | 51 | 1001.2 |
| 20260504174507 | 69 | 260 | 19.0 | 24.0 | 0.00 | 0.00 | 0.00 | 51 | 1001.7 |
| 20260504174007 | 68 | 252 | 18.0 | 22.0 | 0.00 | 0.00 | 0.00 | 51 | 1002.1 |
| 20260504173506 | 69 | 245 | 18.0 | 22.0 | 0.00 | 0.00 | 0.00 | 51 | 1002.1 |
| 20260504173007 | 68 | 243 | 18.0 | 24.0 | 0.00 | 0.00 | 0.00 | 51 | 1002.1 |
| 20260504172506 | 68 | 225 | 20.0 | 26.0 | 0.00 | 0.00 | 0.00 | 51 | 1002.1 |
| 20260504172007 | 68 | 253 | 20.0 | 26.0 | 0.00 | 0.00 | 0.00 | 51 | 1002.1 |
| 20260504171506 | 68 | 234 | 20.0 | 26.0 | 0.00 | 0.00 | 0.00 | 51 | 1002.1 |
| 20260504171007 | 67 | 241 | 19.0 | 26.0 | 0.00 | 0.00 | 0.00 | 51 | 1002.1 |
| 20260504170506 | 68 | 221 | 16.0 | 26.0 | 0.00 | 0.00 | 0.00 | 52 | 1002.1 |
| 20260504151006 | 63 | 231 | 18.0 | 24.0 | 0.00 | 0.00 | 0.00 | 54 | 1003.1 |
| 20260504150506 | 63 | 235 | 18.0 | 24.0 | 0.00 | 0.00 | 0.00 | 54 | 1003.1 |
| 20260504141006 | 61 | 245 | 21.0 | 29.0 | 0.00 | 0.00 | 0.00 | 55 | 1003.1 |
| 20260504140505 | 61 | 247 | 20.0 | 26.0 | 0.00 | 0.00 | 0.00 | 55 | 1003.1 |
| 20260504130506 | 60 | 244 | 16.0 | 24.0 | 0.00 | 0.00 | 0.00 | 57 | 1004.1 |
| 20260504110508 | 53 | 202 | 9.0 | 12.0 | 0.00 | 0.00 | 0.00 | 60 | 1005.1 |
| 20260504100507 | 55 | 213 | 14.0 | 18.0 | 0.00 | 0.00 | 0.00 | 57 | 1004.8 |
| 20260504082008 | 53 | 220 | 14.0 | 18.0 | 0.00 | 0.00 | 0.00 | 60 | 1005.7 |
| 20260504081508 | 53 | 227 | 14.0 | 18.0 | 0.00 | 0.00 | 0.00 | 60 | 1006.1 |
| 20260504081007 | 53 | 227 | 14.0 | 16.0 | 0.00 | 0.00 | 0.00 | 60 | 1006.1 |
| 20260504080507 | 53 | 232 | 14.0 | 16.0 | 0.00 | 0.00 | 0.00 | 60 | 1006.1 |
| 20260504050507 | 55 | 232 | 16.0 | 22.0 | 0.00 | 0.00 | 0.00 | 58 | 1006.1 |
| 20260504050007 | 55 | 240 | 16.0 | 22.0 | 0.00 | 0.00 | 0.00 | 58 | 1006.1 |
| 20260504045008 | 55 | 240 | 14.0 | 20.0 | 0.00 | 0.00 | 0.00 | 58 | 1006.1 |
| 20260504044007 | 55 | 235 | 15.0 | 20.0 | 0.00 | 0.00 | 0.00 | 58 | 1007.1 |
| 20260504043508 | 55 | 238 | 16.0 | 20.0 | 0.00 | 0.00 | 0.00 | 58 | 1006.1 |
| 20260504043008 | 55 | 237 | 14.0 | 22.0 | 0.00 | 0.00 | 0.00 | 58 | 1006.1 |
| 20260504042507 | 56 | 224 | 16.0 | 22.0 | 0.00 | 0.00 | 0.00 | 58 | 1006.1 |
| 20260504042008 | 55 | 247 | 16.0 | 22.0 | 0.00 | 0.00 | 0.00 | 58 | 1006.1 |
| 20260504041507 | 55 | 225 | 15.0 | 18.0 | 0.00 | 0.00 | 0.00 | 59 | 1006.1 |
| 20260504041007 | 56 | 239 | 16.0 | 18.0 | 0.00 | 0.00 | 0.00 | 59 | 1006.2 |
| 20260504040508 | 56 | 237 | 16.0 | 18.0 | 0.00 | 0.00 | 0.00 | 59 | 1006.1 |
| 20260504035506 | 56 | 240 | 16.0 | 18.0 | 0.00 | 0.00 | 0.00 | 59 | 1006.1 |
| 20260504035007 | 55 | 236 | 14.0 | 18.0 | 0.00 | 0.00 | 0.00 | 59 | 1006.1 |
| 20260504033507 | 55 | 232 | 12.0 | 16.0 | 0.00 | 0.00 | 0.00 | 60 | 1006.6 |
| 20260504033007 | 55 | 231 | 12.0 | 16.0 | 0.00 | 0.00 | 0.00 | 60 | 1007.1 |
| 20260504032507 | 55 | 220 | 12.0 | 16.0 | 0.00 | 0.00 | 0.00 | 61 | 1007.1 |
| 20260504032008 | 55 | 233 | 13.0 | 16.0 | 0.00 | 0.00 | 0.00 | 61 | 1007.1 |
| 20260504031507 | 55 | 243 | 12.0 | 16.0 | 0.00 | 0.00 | 0.00 | 61 | 1007.1 |
| 20260504031007 | 55 | 230 | 14.0 | 16.0 | 0.00 | 0.00 | 0.00 | 61 | 1007.1 |
| 20260504030507 | 55 | 231 | 12.0 | 16.0 | 0.00 | 0.00 | 0.00 | 62 | 1007.1 |
| 20260504030007 | 55 | 234 | 12.0 | 16.0 | 0.00 | 0.00 | 0.00 | 62 | 1007.1 |
| 20260504025506 | 55 | 228 | 12.0 | 16.0 | 0.00 | 0.00 | 0.00 | 63 | 1007.1 |
| 20260504025008 | 55 | 237 | 14.0 | 16.0 | 0.00 | 0.00 | 0.00 | 63 | 1007.1 |
| 20260504024506 | 55 | 234 | 12.0 | 14.0 | 0.00 | 0.00 | 0.00 | 65 | 1007.1 |
| 20260504024008 | 55 | 233 | 12.0 | 14.0 | 0.00 | 0.00 | 0.00 | 65 | 1007.1 |
| 20260504023507 | 55 | 232 | 12.0 | 14.0 | 0.00 | 0.00 | 0.00 | 66 | 1007.1 |
| 20260504023008 | 54 | 229 | 9.0 | 12.0 | 0.00 | 0.00 | 0.00 | 68 | 1007.1 |
| 20260504022507 | 54 | 223 | 9.0 | 12.0 | 0.00 | 0.00 | 0.00 | 69 | 1007.1 |
| 20260504022007 | 54 | 223 | 9.0 | 12.0 | 0.00 | 0.00 | 0.00 | 70 | 1007.3 |
| 20260504021507 | 54 | 221 | 9.0 | 12.0 | 0.00 | 0.00 | 0.00 | 71 | 1007.1 |
| 20260504020507 | 53 | 240 | 7.0 | 9.0 | 0.00 | 0.00 | 0.00 | 74 | 1008.1 |
| 20260504015506 | 52 | 235 | 7.0 | 9.0 | 0.00 | 0.00 | 0.00 | 76 | 1008.1 |
| 20260504015008 | 52 | 232 | 7.0 | 9.0 | 0.00 | 0.00 | 0.00 | 77 | 1008.1 |
| 20260504014507 | 52 | 224 | 7.0 | 9.0 | 0.00 | 0.00 | 0.00 | 78 | 1008.1 |
| 20260504014007 | 52 | 219 | 5.0 | 7.0 | 0.00 | 0.00 | 0.00 | 78 | 1008.1 |
| 20260504013507 | 52 | 208 | 5.0 | 7.0 | 0.00 | 0.00 | 0.00 | 78 | 1008.1 |
| 20260504012007 | 52 | 212 | 7.0 | 9.0 | 0.00 | 0.00 | 0.00 | 79 | 1008.1 |
| 20260504011507 | 52 | 218 | 7.0 | 9.0 | 0.00 | 0.00 | 0.00 | 79 | 1008.1 |
| 20260504011007 | 52 | 221 | 7.0 | 14.0 | 0.00 | 0.00 | 0.00 | 79 | 1008.1 |
| 20260504010507 | 52 | 206 | 9.0 | 14.0 | 0.00 | 0.00 | 0.00 | 80 | 1008.1 |
| 20260504010006 | 50 | 209 | 7.0 | 14.0 | 0.00 | 0.00 | 0.00 | 81 | 1008.1 |